GW0503 Weather Reports


time (UTC)temp
C
wind
direction
speed
KPH
gust
KPH
rain 1hr
cm
rain 24hr
cm
rain mn
cm
humidity
%
barometer
mb
20260508183058 12 19 12.9 22.5 0.00 2.64 0.00 56 1001.3
20260508181608 12 35 16.1 24.1 0.00 2.64 0.00 51 1001.4
20260508180058 13 73 16.1 25.7 0.00 2.64 0.00 49 1001.3
20260508174608 14 79 20.9 30.6 0.00 2.84 0.00 52 1001.1
20260508173100 15 51 16.1 25.7 0.00 2.84 0.00 52 1001.1
20260508171557 15 49 16.1 27.4 0.00 2.84 0.00 52 1001.3
20260508170057 15 14 12.9 27.4 0.00 2.84 0.00 51 1001.4
20260508164600 14 41 12.9 24.1 0.00 2.84 0.00 56 1001.3
20260508163056 13 64 8.0 27.4 0.00 2.84 0.00 58 1001.2
20260508161557 13 30 12.9 20.9 0.00 2.84 0.00 58 1001.4
20260508160057 13 37 9.7 24.1 0.00 2.84 0.00 60 1001.4
20260508154604 13 32 14.5 27.4 0.00 2.84 0.00 58 1001.5
20260508153059 13 26 16.1 27.4 0.00 2.84 0.00 57 1001.4
20260508151556 13 42 12.9 32.2 0.00 2.84 0.00 60 1001.5
20260508150057 13 45 9.7 25.7 0.00 2.84 0.00 56 1001.4
20260508144558 14 26 16.1 29.0 0.00 2.84 0.00 60 1001.6
20260508143102 13 97 9.7 24.1 0.00 2.84 0.00 65 1001.7
20260508141616 12 22 12.9 22.5 0.00 2.84 0.00 66 1001.9
20260508140056 13 33 11.3 22.5 0.00 2.84 0.00 64 1002.2
20260508134618 13 70 6.4 19.3 0.00 2.84 0.00 74 1002.3
20260508133100 12 64 9.7 20.9 0.00 2.84 0.00 72 1002.5
20260508131600 12 33 11.3 24.1 0.00 2.84 0.00 79 1002.2
20260508130057 11 357 8.0 16.1 0.00 2.84 0.00 90 1002.1
20260508124602 10 86 4.8 12.9 0.00 2.84 0.00 97 1002.2
20260508123057 8 149 4.8 12.9 0.00 2.84 0.00 98 1001.9
20260508121602 8 142 8.0 12.9 0.00 2.84 0.00 98 1002.2
20260508120056 8 143 6.4 11.3 0.00 2.84 0.00 99 1002.4
20260508114555 7 189 0.0 4.8 0.00 2.95 0.00 100 1002.7
20260508113107 7 197 3.2 6.4 0.00 2.95 0.00 100 1002.6
20260508111603 6 0 0.0 4.8 0.00 2.95 0.00 100 1002.6
20260508110101 6 349 1.6 4.8 0.00 2.95 0.00 99 1002.9
20260508104600 6 0 0.0 3.2 0.00 3.05 0.00 99 1003.1
20260508103102 6 0 0.0 3.2 0.00 3.05 0.00 99 1002.9
20260508101557 6 290 1.6 4.8 0.00 3.05 0.00 99 1002.9
20260508100057 5 0 0.0 1.6 0.00 3.05 0.00 100 1002.7
20260508094600 5 0 0.0 6.4 0.00 3.07 0.00 99 1002.5
20260508093059 5 18 3.2 8.0 0.00 3.07 0.00 99 1002.5
20260508091557 5 26 4.8 8.0 0.00 3.07 0.00 99 1002.1
20260508090104 5 351 3.2 4.8 0.00 3.07 0.00 99 1002.4
20260508084559 5 14 3.2 4.8 0.00 3.07 0.00 99 1002.4
20260508083117 5 14 1.6 6.4 0.00 3.07 0.00 99 1001.8
20260508081605 6 35 3.2 6.4 0.00 3.07 0.00 99 1001.5
20260508074601 6 152 1.6 3.2 0.00 3.07 0.00 99 1001.5
20260508073056 6 0 0.0 3.2 0.00 3.07 0.00 98 1001.4
20260508071557 6 251 1.6 4.8 0.00 3.07 0.00 99 1001.4
20260508070059 7 0 0.0 6.4 0.00 3.07 0.00 99 1001.6
20260508064558 7 303 4.8 12.9 0.00 3.10 0.00 99 1001.5
20260508063058 7 288 1.6 8.0 0.00 3.10 0.00 99 1001.6
20260508061601 7 326 3.2 6.4 0.00 3.10 0.00 99 1001.7
20260508060056 7 0 0.0 3.2 0.00 3.10 0.00 99 1001.6
20260508054558 7 315 1.6 8.0 0.00 3.12 0.00 99 1001.6
20260508053057 8 299 4.8 11.3 0.00 3.12 0.00 99 1001.6
20260508051556 8 313 4.8 12.9 0.00 3.12 0.00 99 1001.5
20260508050056 8 316 3.2 4.8 0.00 3.12 0.00 99 1001.7
20260508044555 8 0 0.0 3.2 0.00 3.12 0.00 99 1001.6
20260508043107 8 4 1.6 6.4 0.00 3.12 0.00 99 1001.7
20260508041555 8 211 1.6 4.8 0.00 3.12 0.00 99 1001.7
20260508040057 8 211 3.2 6.4 0.00 3.12 0.00 99 1001.6
20260508034558 9 211 1.6 4.8 0.00 3.12 0.00 99 1001.9
20260508033058 9 211 1.6 4.8 0.00 3.12 0.00 99 1001.9
20260508031558 9 0 0.0 12.9 0.00 3.12 0.00 99 1001.9
20260508030057 9 174 0.0 9.7 0.00 3.12 0.00 99 1002.1
20260508024559 9 0 1.6 6.4 0.00 3.12 3.12 99 1002.1
20260508023059 9 60 0.0 8.0 0.00 3.12 3.12 99 1002.1
20260508021556 9 253 1.6 6.4 0.00 3.12 3.12 99 1002.1
20260508020057 9 112 3.2 9.7 0.00 3.12 3.12 99 1002.2
20260508014557 9 125 0.0 4.8 0.00 3.12 3.12 99 1001.9
20260508013059 10 138 1.6 4.8 0.00 3.12 3.12 99 1001.7
20260508011556 9 126 1.6 6.4 0.00 3.12 3.12 99 1001.6
20260508010057 10 294 0.0 3.2 0.00 3.12 3.12 99 1001.6
20260508004610 10 0 1.6 4.8 0.00 3.12 3.12 99 1001.8
20260508003056 10 276 1.6 6.4 0.00 3.12 3.12 99 1002.1
20260508001557 10 145 3.2 12.9 0.00 3.12 3.12 99 1002.2
20260508000057 10 137 4.8 11.3 0.00 3.12 3.12 99 1002.2
20260507234600 10 147 3.2 6.4 0.00 3.12 3.12 99 1002.3
20260507233055 10 173 1.6 6.4 0.00 3.12 3.12 99 1002.3
20260507231650 10 173 1.6 12.9 0.00 3.12 3.12 99 1002.2
20260507230105 10 162 8.0 24.1 0.00 3.12 3.12 99 1002.3
20260507224556 10 147 8.0 19.3 0.00 3.12 3.12 99 1002.3
20260507223100 10 151 11.3 19.3 0.00 3.12 3.12 98 1002.3
20260507221557 10 146 4.8 16.1 0.00 3.12 3.12 98 1002.4
20260507220057 10 124 8.0 17.7 0.03 3.12 3.12 99 1002.7
20260507214618 10 101 8.0 19.3 0.03 3.12 3.12 98 1002.8
20260507213108 10 149 11.3 19.3 0.05 3.12 3.12 99 1003.0
20260507211620 10 159 8.0 19.3 0.13 3.12 3.12 99 1002.7
20260507210057 10 177 6.4 14.5 0.23 3.10 3.10 98 1002.4
20260507204607 10 128 9.7 19.3 0.43 3.10 3.10 98 1002.2
20260507203101 10 136 8.0 19.3 0.64 3.07 3.07 98 1002.8
20260507201608 10 82 9.7 24.1 0.89 2.97 2.97 98 1003.1
20260507200059 10 164 4.8 11.3 1.04 2.87 2.87 98 1003.4
20260507194633 10 117 6.4 17.7 1.14 2.64 2.64 98 1004.1
20260507193056 11 148 11.3 24.1 1.24 2.44 2.44 97 1004.6
20260507191601 11 145 9.7 17.7 1.30 2.11 2.11 97 1004.9
20260507190057 11 149 16.1 35.4 1.32 1.83 1.83 96 1004.8
20260507184607 11 187 19.3 40.2 1.17 1.52 1.52 96 1004.9